FW9372 Weather Reports


Display with metric or nautical units.
time (UTC)temp
F
wind
direction
speed
MPH
gust
MPH
rain 1hr
in
rain 24hr
in
rain mn
in
humidity
%
barometer
mb
20260904103115 71 0 0.0 0.0 0.00 0.00 0.00 99 1013.1
20260904101603 71 0 0.0 0.0 0.00 0.00 0.00 99 1013.2
20260904100105 71 0 0.0 0.0 0.00 0.00 0.00 99 1013.1
20260904094607 72 0 0.0 0.0 0.00 0.00 0.00 99 1013.2
20260904093114 72 0 0.0 0.0 0.00 0.00 0.00 99 1013.0
20260904091605 72 0 0.0 0.0 0.00 0.00 0.00 99 1013.0
20260904090107 72 0 0.0 0.0 0.00 0.00 0.00 99 1013.0
20260904084607 72 0 0.0 0.0 0.00 0.00 0.00 99 1012.9
20260904083105 72 0 0.0 0.0 0.00 0.00 0.00 99 1012.9
20260904081610 73 0 0.0 0.0 0.00 0.00 0.00 99 1012.9
20260904080104 73 0 0.0 0.0 0.00 0.00 0.00 99 1012.8
20260904074603 73 0 0.0 0.0 0.00 0.00 0.00 99 1012.7
20260904073103 73 0 0.0 0.0 0.00 0.00 0.00 99 1012.7
20260904071606 73 0 0.0 0.0 0.00 0.00 0.00 99 1012.7
20260904070114 73 0 0.0 0.0 0.00 0.00 0.00 99 1012.8
20260904064605 73 0 0.0 0.0 0.00 0.00 0.00 98 1012.8
20260904063123 74 0 0.0 0.0 0.00 0.00 0.00 98 1012.8
20260904061605 74 0 0.0 0.0 0.00 0.00 0.00 99 1012.8
20260904060106 74 0 0.0 0.0 0.00 0.00 0.00 98 1012.9
20260904054613 74 0 0.0 0.0 0.00 0.00 0.00 98 1013.0
20260904053104 74 0 0.0 0.0 0.00 0.00 0.00 98 1013.0
20260904051610 74 0 0.0 0.0 0.00 0.00 0.00 98 1013.2
20260904050106 74 0 0.0 0.0 0.00 0.00 0.00 98 1013.2
20260904044608 74 0 0.0 0.0 0.00 0.00 0.00 98 1013.3
20260904043104 74 0 0.0 0.0 0.00 0.00 0.00 98 1013.3
20260904041607 75 0 0.0 0.0 0.00 0.00 0.00 98 1013.3
20260904040111 75 0 0.0 0.0 0.00 0.00 0.00 97 1013.3
20260904034603 75 0 0.0 0.0 0.00 0.00 0.00 97 1013.4
20260904033104 76 0 0.0 0.0 0.00 0.00 0.00 97 1013.5
20260904031612 76 0 0.0 0.0 0.00 0.00 0.00 97 1013.5
20260904030110 75 0 0.0 0.0 0.00 0.00 0.00 96 1013.5
20260904024611 76 0 0.0 0.0 0.00 0.00 0.00 96 1013.5
20260904023108 76 0 0.0 0.0 0.00 0.00 0.00 95 1013.4
20260904021609 76 0 0.0 0.0 0.00 0.00 0.00 95 1013.3
20260904020118 77 0 0.0 0.0 0.00 0.00 0.00 94 1013.3
20260904014624 77 0 0.0 0.0 0.00 0.00 0.00 93 1013.2
20260904013106 77 0 0.0 0.0 0.00 0.00 0.00 93 1013.0
20260904011609 78 0 0.0 0.0 0.00 0.00 0.00 92 1012.9
20260904010104 78 0 0.0 0.0 0.00 0.00 0.00 91 1012.9
20260904004608 79 0 0.0 0.0 0.00 0.00 0.00 91 1012.5
20260904003106 80 0 0.0 0.0 0.00 0.00 0.00 89 1012.5
20260904001606 81 0 0.0 0.0 0.00 0.00 0.00 89 1012.3
20260904000125 82 0 0.0 0.0 0.00 0.00 0.00 88 1012.1
20260903234617 83 0 0.0 0.0 0.00 0.00 0.00 87 1012.3
20260903233111 84 0 0.0 0.0 0.00 0.00 0.00 85 1012.1
20260903231610 86 0 0.0 0.0 0.00 0.00 0.00 83 1012.0
20260903230110 89 0 0.0 0.0 0.00 0.00 0.00 79 1012.1
20260903224634 90 0 0.0 0.0 0.00 0.00 0.00 77 1012.1
20260903223113 91 0 0.0 0.0 0.00 0.00 0.00 76 1012.1
20260903221605 93 0 0.0 0.0 0.00 0.00 0.00 73 1012.1
20260903220108 96 0 0.0 0.0 0.00 0.00 0.00 70 1012.2
20260903214613 96 0 0.0 0.0 0.00 0.00 0.00 66 1012.3
20260903213116 98 0 0.0 0.0 0.00 0.00 0.00 62 1012.5
20260903211610 97 0 0.0 0.0 0.00 0.00 0.00 57 1012.6
20260903210128 97 0 0.0 1.0 0.00 0.00 0.00 59 1012.8
20260903204606 97 0 0.0 0.0 0.00 0.00 0.00 54 1012.9
20260903203115 97 0 0.0 1.0 0.00 0.00 0.00 57 1013.1
20260903201605 97 0 0.0 0.0 0.00 0.00 0.00 53 1013.1
20260903200108 97 0 0.0 1.0 0.00 0.00 0.00 54 1013.3
20260903194608 97 0 0.0 0.0 0.00 0.00 0.00 54 1013.3
20260903193110 96 0 0.0 1.0 0.00 0.00 0.00 52 1013.5
20260903191606 97 0 0.0 6.0 0.00 0.00 0.00 53 1013.6
20260903190107 95 0 0.0 1.0 0.00 0.00 0.00 56 1013.8
20260903184606 96 248 0.0 0.0 0.00 0.00 0.00 57 1013.9
20260903183106 95 0 0.0 2.0 0.00 0.00 0.00 58 1014.0
20260903181609 96 0 0.0 0.0 0.00 0.00 0.00 60 1014.1
20260903180107 95 0 0.0 1.0 0.00 0.00 0.00 59 1014.2
20260903174608 95 0 0.0 1.0 0.00 0.00 0.00 60 1014.3
20260903173106 94 0 0.0 1.0 0.00 0.00 0.00 61 1014.5
20260903171617 94 0 0.0 1.0 0.00 0.00 0.00 63 1014.6
20260903170107 93 0 0.0 1.0 0.00 0.00 0.00 62 1014.9
20260903164623 93 0 0.0 1.0 0.00 0.00 0.00 66 1014.9
20260903163108 93 0 0.0 0.0 0.00 0.00 0.00 67 1015.0
20260903161608 91 0 0.0 3.0 0.00 0.00 0.00 68 1015.1
20260903160130 91 0 0.0 0.0 0.00 0.00 0.00 70 1015.2
20260903154611 90 0 0.0 2.0 0.00 0.00 0.00 71 1015.3
20260903153112 90 0 0.0 0.0 0.00 0.00 0.00 71 1015.2
20260903151611 89 0 0.0 0.0 0.00 0.00 0.00 72 1015.1
20260903150113 88 0 0.0 0.0 0.00 0.00 0.00 71 1015.2
20260903144606 88 0 0.0 0.0 0.00 0.00 0.00 79 1015.1
20260903143112 85 0 0.0 0.0 0.00 0.00 0.00 84 1015.1
20260903141614 82 0 0.0 0.0 0.00 0.00 0.00 89 1015.2
20260903140110 79 0 0.0 0.0 0.00 0.00 0.00 94 1015.3
20260903134607 78 0 0.0 0.0 0.00 0.00 0.00 98 1015.4
20260903133108 76 0 0.0 0.0 0.00 0.00 0.00 99 1015.5
20260903131608 74 0 0.0 0.0 0.00 0.00 0.00 100 1015.6
20260903130106 73 0 0.0 0.0 0.00 0.00 0.00 99 1015.7
20260903124609 72 0 0.0 0.0 0.00 0.00 0.00 99 1015.7
20260903123110 71 0 0.0 0.0 0.00 0.00 0.00 99 1015.7
20260903121608 71 0 0.0 0.0 0.00 0.00 0.00 99 1015.7
20260903120109 70 0 0.0 0.0 0.00 0.00 0.00 99 1015.5
20260903114609 69 0 0.0 0.0 0.00 0.00 0.00 99 1015.4
20260903113105 69 0 0.0 0.0 0.00 0.00 0.00 99 1015.4
20260903111606 69 0 0.0 0.0 0.00 0.00 0.00 99 1015.3
20260903110106 70 0 0.0 0.0 0.00 0.00 0.00 99 1015.1
20260903104609 69 0 0.0 0.0 0.00 0.00 0.00 99 1015.0